Location: Cuiry
(49.3858°N, 3.7708°E)
Time: 15:54:40
(UTC+00:00)

PSLV R/B - Pass Details

Date: 19 April 2026
Orbit: 560 x 585 km, 98.0° (Epoch: 14 May)

Event Time Altitude Azimuth Distance (km) Brightness Sun altitude
Rises 19:22:29 0° 193° (SSW) 2,770 6.8 -6.7°
Reaches altitude 10° 19:24:51 10° 206° (SSW) 1,882 6.0 -7.0°
Maximum altitude 19:28:22 27° 265° (W) 1,119 5.7 -7.5°
Drops below altitude 10° 19:31:56 10° 324° (NW) 1,909 7.2 -8.0°
Sets 19:34:22 0° 337° (NNW) 2,818 7.9 -8.4°
